When you browse on this site, cookies collect data to enhance your experience and personalize the content and advertising you see.
Visit our Privacy Policy to learn more. By continuing to use the site, you agree to this use of cookies and data.
  • In United Kingdom
  • List of Countries
  • For 7 days
  • Water Temperature
  • Weather Map
  • Weather Widgets
  • user-avatar
    Login

    Hourly Weather Namyur

    Today, 18 August, Sunday

    Time Temperature Precipitation Wind Pressure Humidity
    00:00 +19°C° 0.8 mm 1 mps 745 mmHg 97%
    01:00 +18°C° 1.9 mm 1 mps 745 mmHg 97%
    02:00 +18°C° 1.9 mm 1 mps 744 mmHg 97%
    03:00 +18°C° 1.9 mm 1 mps 744 mmHg 97%
    04:00 +18°C° 3.4 mm 1 mps 744 mmHg 97%
    05:00 +17°C° 3.4 mm 2 mps 743 mmHg 97%
    06:00 +16°C° 3.4 mm 2 mps 743 mmHg 98%
    07:00 +17°C° 1.4 mm 3 mps 743 mmHg 96%
    08:00 +18°C° 1.4 mm 4 mps 744 mmHg 94%
    09:00 +19°C° 1.4 mm 5 mps 744 mmHg 92%
    10:00 +19°C° 0.5 mm 5 mps 744 mmHg 89%
    11:00 +20°C° 0.5 mm 5 mps 745 mmHg 87%
    12:00 +20°C° 0.5 mm 6 mps 745 mmHg 84%
    13:00 +21°C° 0.1 mm 6 mps 745 mmHg 79%
    14:00 +21°C° 0.1 mm 6 mps 745 mmHg 75%
    15:00 +22°C° 0.1 mm 5 mps 746 mmHg 70%
    16:00 +21°C° 0.2 mm 5 mps 746 mmHg 73%
    17:00 +20°C° 0.2 mm 5 mps 746 mmHg 76%
    18:00 +19°C° 0.2 mm 4 mps 747 mmHg 78%
    19:00 +17°C° 0 mm 4 mps 747 mmHg 80%
    20:00 +16°C° 0 mm 3 mps 748 mmHg 81%
    21:00 +13°C° 0 mm 3 mps 748 mmHg 83%
    22:00 +12°C° 0 mm 3 mps 748 mmHg 85%
    23:00 +12°C° 0 mm 3 mps 749 mmHg 87%

    Tomorrow, 19 August, Monday

    Time Temperature Precipitation Wind Pressure Humidity
    00:00 +12°C° 0 mm 3 mps 749 mmHg 89%
    01:00 +11°C° 0 mm 4 mps 750 mmHg 90%
    02:00 +11°C° 0 mm 4 mps 750 mmHg 91%
    03:00 +11°C° 0 mm 4 mps 750 mmHg 92%
    04:00 +11°C° 0 mm 4 mps 751 mmHg 91%
    05:00 +12°C° 0 mm 4 mps 751 mmHg 89%
    06:00 +12°C° 0 mm 4 mps 751 mmHg 88%
    07:00 +14°C° 0 mm 5 mps 751 mmHg 81%
    08:00 +16°C° 0 mm 5 mps 752 mmHg 73%
    09:00 +17°C° 0 mm 6 mps 752 mmHg 65%
    10:00 +19°C° 0 mm 5 mps 752 mmHg 61%
    11:00 +20°C° 0 mm 5 mps 752 mmHg 58%
    12:00 +21°C° 0 mm 5 mps 752 mmHg 54%
    13:00 +21°C° 0 mm 5 mps 752 mmHg 54%
    14:00 +21°C° 0 mm 5 mps 752 mmHg 53%
    15:00 +22°C° 0 mm 5 mps 752 mmHg 53%
    16:00 +21°C° 0.1 mm 4 mps 752 mmHg 59%
    17:00 +19°C° 0.1 mm 3 mps 752 mmHg 65%
    18:00 +18°C° 0.1 mm 3 mps 753 mmHg 71%
    19:00 +17°C° 0.1 mm 3 mps 753 mmHg 74%
    20:00 +16°C° 0.1 mm 3 mps 753 mmHg 78%
    21:00 +15°C° 0.1 mm 2 mps 754 mmHg 82%
    22:00 +14°C° 0 mm 2 mps 754 mmHg 84%
    23:00 +13°C° 0 mm 2 mps 754 mmHg 87%

    Day after tomorrow, 20 August, Tuesday

    Time Temperature Precipitation Wind Pressure Humidity
    00:00 +12°C° 0 mm 2 mps 754 mmHg 89%
    01:00 +12°C° 0 mm 2 mps 754 mmHg 90%
    02:00 +12°C° 0 mm 2 mps 755 mmHg 91%
    03:00 +10°C° 0 mm 2 mps 755 mmHg 92%
    04:00 +12°C° 0 mm 2 mps 755 mmHg 91%
    05:00 +12°C° 0 mm 2 mps 755 mmHg 90%
    06:00 +13°C° 0 mm 2 mps 756 mmHg 89%
    07:00 +15°C° 0 mm 2 mps 756 mmHg 80%
    08:00 +16°C° 0 mm 3 mps 756 mmHg 71%
    09:00 +18°C° 0 mm 3 mps 756 mmHg 61%
    10:00 +19°C° 0 mm 3 mps 756 mmHg 58%
    11:00 +20°C° 0 mm 3 mps 757 mmHg 54%
    12:00 +21°C° 0 mm 3 mps 757 mmHg 50%
    13:00 +21°C° 0 mm 3 mps 757 mmHg 51%
    14:00 +21°C° 0 mm 3 mps 757 mmHg 52%
    15:00 +21°C° 0 mm 3 mps 757 mmHg 52%
    16:00 +20°C° 0 mm 2 mps 757 mmHg 56%
    17:00 +19°C° 0 mm 2 mps 757 mmHg 60%
    18:00 +19°C° 0 mm 1 mps 758 mmHg 65%
    19:00 +16°C° 0 mm 1 mps 758 mmHg 69%
    20:00 +15°C° 0 mm 1 mps 759 mmHg 74%
    21:00 +13°C° 0 mm 1 mps 759 mmHg 78%
    22:00 +13°C° 0 mm 1 mps 759 mmHg 80%
    23:00 +12°C° 0 mm 1 mps 759 mmHg 83%

    21 August, Wednesday

    Time Temperature Precipitation Wind Pressure Humidity
    00:00 +11°C° 0 mm 0 mps 759 mmHg 85%
    01:00 +10°C° 0 mm 0 mps 759 mmHg 85%
    02:00 +11°C° 0 mm 1 mps 759 mmHg 85%
    03:00 +11°C° 0 mm 1 mps 759 mmHg 86%
    04:00 +12°C° 0 mm 1 mps 759 mmHg 84%
    05:00 +12°C° 0 mm 1 mps 760 mmHg 82%
    06:00 +13°C° 0 mm 1 mps 760 mmHg 81%
    07:00 +15°C° 0 mm 1 mps 760 mmHg 72%
    08:00 +18°C° 0 mm 1 mps 760 mmHg 63%
    09:00 +20°C° 0 mm 1 mps 760 mmHg 55%
    10:00 +21°C° 0 mm 1 mps 760 mmHg 51%
    11:00 +22°C° 0 mm 1 mps 759 mmHg 47%
    12:00 +23°C° 0 mm 1 mps 759 mmHg 44%
    13:00 +23°C° 0 mm 1 mps 759 mmHg 43%
    14:00 +24°C° 0 mm 1 mps 759 mmHg 43%
    15:00 +24°C° 0 mm 2 mps 758 mmHg 43%
    16:00 +23°C° 0 mm 2 mps 758 mmHg 49%
    17:00 +21°C° 0 mm 2 mps 758 mmHg 55%
    18:00 +19°C° 0 mm 2 mps 758 mmHg 61%
    19:00 +18°C° 0 mm 2 mps 758 mmHg 65%
    20:00 +16°C° 0 mm 1 mps 758 mmHg 69%
    21:00 +15°C° 0 mm 1 mps 759 mmHg 74%
    22:00 +14°C° 0 mm 1 mps 759 mmHg 75%
    23:00 +14°C° 0 mm 1 mps 758 mmHg 77%

    22 August, Thursday

    Time Temperature Precipitation Wind Pressure Humidity
    00:00 +14°C° 0 mm 1 mps 758 mmHg 79%
    01:00 +13°C° 0 mm 1 mps 758 mmHg 79%
    02:00 +13°C° 0 mm 1 mps 758 mmHg 79%
    03:00 +13°C° 0 mm 1 mps 758 mmHg 79%
    04:00 +14°C° 0 mm 1 mps 758 mmHg 78%
    05:00 +14°C° 0 mm 1 mps 758 mmHg 77%
    06:00 +15°C° 0 mm 1 mps 759 mmHg 75%
    07:00 +18°C° 0 mm 1 mps 759 mmHg 69%
    08:00 +20°C° 0 mm 1 mps 759 mmHg 62%
    09:00 +22°C° 0 mm 1 mps 759 mmHg 55%
    10:00 +24°C° 0 mm 1 mps 759 mmHg 51%
    11:00 +25°C° 0 mm 1 mps 759 mmHg 48%
    12:00 +26°C° 0 mm 1 mps 758 mmHg 44%
    13:00 +26°C° 0 mm 1 mps 758 mmHg 43%
    14:00 +26°C° 0 mm 1 mps 758 mmHg 42%
    15:00 +26°C° 0 mm 1 mps 758 mmHg 42%
    16:00 +25°C° 0 mm 2 mps 758 mmHg 48%
    17:00 +23°C° 0 mm 2 mps 758 mmHg 54%
    18:00 +21°C° 0 mm 2 mps 758 mmHg 59%
    19:00 +19°C° 0 mm 2 mps 758 mmHg 64%
    20:00 +18°C° 0 mm 2 mps 758 mmHg 69%
    21:00 +16°C° 0 mm 2 mps 759 mmHg 74%
    22:00 +15°C° 0 mm 2 mps 758 mmHg 77%
    23:00 +15°C° 0 mm 2 mps 758 mmHg 81%

    23 August, Friday

    Time Temperature Precipitation Wind Pressure Humidity
    00:00 +14°C° 0 mm 2 mps 758 mmHg 84%
    01:00 +14°C° 0 mm 1 mps 758 mmHg 85%
    02:00 +14°C° 0 mm 1 mps 758 mmHg 86%
    03:00 +13°C° 0 mm 1 mps 757 mmHg 88%
    04:00 +14°C° 0 mm 1 mps 758 mmHg 85%
    05:00 +15°C° 0 mm 1 mps 758 mmHg 83%
    06:00 +15°C° 0 mm 1 mps 758 mmHg 81%
    07:00 +18°C° 0 mm 2 mps 758 mmHg 71%
    08:00 +21°C° 0 mm 2 mps 758 mmHg 62%
    09:00 +24°C° 0 mm 2 mps 757 mmHg 53%
    10:00 +25°C° 0 mm 2 mps 757 mmHg 49%
    11:00 +27°C° 0 mm 3 mps 757 mmHg 44%
    12:00 +28°C° 0 mm 3 mps 756 mmHg 40%
    13:00 +28°C° 0 mm 3 mps 756 mmHg 41%
    14:00 +28°C° 0 mm 3 mps 755 mmHg 41%
    15:00 +29°C° 0 mm 4 mps 755 mmHg 42%
    16:00 +27°C° 0 mm 3 mps 755 mmHg 48%
    17:00 +26°C° 0 mm 3 mps 755 mmHg 54%
    18:00 +24°C° 0 mm 2 mps 754 mmHg 60%
    19:00 +21°C° 0 mm 2 mps 754 mmHg 64%
    20:00 +20°C° 0 mm 2 mps 754 mmHg 67%
    21:00 +18°C° 0 mm 2 mps 754 mmHg 71%
    22:00 +18°C° 0 mm 2 mps 754 mmHg 72%
    23:00 +17°C° 0 mm 2 mps 754 mmHg 74%
    Show more